Time,TemperatureF,DewpointF,PressureIn,WindDirection,WindDirectionDegrees,WindSpeedMPH,WindSpeedGustMPH,Humidity,HourlyPrecipIn,Conditions,Clouds,dailyrainin,SolarRadiationWatts/m^2,SoftwareType,DateUTC
2013-02-11 00:02:00,32.0,29.0,-100.00,ESE,110,13.0,21.0,90,0.00,,,0.00,5.000000,,2013-02-11 00:02:00,
2013-02-11 00:32:00,33.0,31.0,-100.00,ESE,120,10.0,21.0,92,0.00,,,0.00,0.000000,,2013-02-11 00:32:00,
2013-02-11 00:42:00,33.0,31.0,-100.00,ESE,120,10.0,21.0,92,0.00,,,0.00,0.000000,,2013-02-11 00:42:00,
2013-02-11 00:52:00,33.0,31.0,-100.00,ESE,120,10.0,21.0,92,0.00,,,0.00,0.000000,,2013-02-11 00:52:00,
2013-02-11 01:01:00,33.0,31.0,-100.00,ESE,120,10.0,21.0,92,0.00,,,0.00,0.000000,,2013-02-11 01:01:00,
2013-02-11 01:32:00,33.0,31.0,-100.00,ESE,122,11.0,20.0,94,0.01,,,0.01,0.000000,,2013-02-11 01:32:00,
2013-02-11 01:42:00,33.0,31.0,-100.00,ESE,122,11.0,20.0,94,0.01,,,0.01,0.000000,,2013-02-11 01:42:00,
2013-02-11 01:52:00,33.0,31.0,-100.00,ESE,122,11.0,20.0,94,0.01,,,0.01,0.000000,,2013-02-11 01:52:00,
2013-02-11 02:01:00,33.0,31.0,-100.00,ESE,122,11.0,20.0,94,0.01,,,0.01,0.000000,,2013-02-11 02:01:00,
2013-02-11 05:22:00,33.0,32.0,-100.00,ESE,111,8.0,14.0,96,-99.99,,,0.27,0.000000,,2013-02-11 05:22:00,
2013-02-11 05:32:00,33.0,32.0,-100.00,ESE,111,8.0,14.0,96,-99.99,,,0.27,0.000000,,2013-02-11 05:32:00,
2013-02-11 05:42:00,33.0,32.0,-100.00,ESE,111,8.0,14.0,96,-99.99,,,0.27,0.000000,,2013-02-11 05:42:00,
2013-02-11 05:53:00,33.0,32.0,-100.00,ESE,111,8.0,14.0,96,-99.99,,,0.27,0.000000,,2013-02-11 05:53:00,
2013-02-11 06:02:00,33.0,32.0,-100.00,ESE,111,8.0,14.0,96,-99.99,,,0.27,0.000000,,2013-02-11 06:02:00,
2013-02-11 06:32:00,34.0,33.0,-100.00,ESE,120,5.0,12.0,97,0.17,,,0.44,0.000000,,2013-02-11 06:32:00,
2013-02-11 06:42:00,34.0,33.0,-100.00,ESE,120,5.0,12.0,97,0.17,,,0.44,0.000000,,2013-02-11 06:42:00,
2013-02-11 06:52:00,34.0,33.0,-100.00,ESE,120,5.0,12.0,97,0.17,,,0.44,0.000000,,2013-02-11 06:52:00,
2013-02-11 07:01:00,34.0,33.0,-100.00,ESE,120,5.0,12.0,97,0.17,,,0.44,0.000000,,2013-02-11 07:01:00,
2013-02-11 07:32:00,35.0,34.0,-100.00,ENE,77,4.0,7.0,97,0.06,,,0.50,0.000000,,2013-02-11 07:32:00,
2013-02-11 07:42:00,35.0,34.0,-100.00,ENE,77,4.0,7.0,97,0.06,,,0.50,0.000000,,2013-02-11 07:42:00,
2013-02-11 07:52:00,35.0,34.0,-100.00,ENE,77,4.0,7.0,97,0.06,,,0.50,0.000000,,2013-02-11 07:52:00,
2013-02-11 08:01:00,35.0,34.0,-100.00,ENE,77,4.0,7.0,97,0.06,,,0.50,0.000000,,2013-02-11 08:01:00,
2013-02-11 08:32:00,37.0,36.0,-100.00,South,183,4.0,8.0,97,0.04,,,0.54,0.000000,,2013-02-11 08:32:00,
2013-02-11 08:42:00,37.0,36.0,-100.00,South,183,4.0,8.0,97,0.04,,,0.54,0.000000,,2013-02-11 08:42:00,
2013-02-11 08:52:00,37.0,36.0,-100.00,South,183,4.0,8.0,97,0.04,,,0.54,0.000000,,2013-02-11 08:52:00,
2013-02-11 09:01:00,37.0,36.0,-100.00,South,183,4.0,8.0,97,0.04,,,0.54,0.000000,,2013-02-11 09:01:00,
2013-02-11 09:32:00,39.0,38.0,-100.00,SSW,204,11.0,15.0,97,0.13,,,0.67,0.000000,,2013-02-11 09:32:00,
2013-02-11 09:42:00,39.0,38.0,-100.00,SSW,204,11.0,15.0,97,0.13,,,0.67,0.000000,,2013-02-11 09:42:00,
2013-02-11 09:52:00,39.0,38.0,-100.00,SSW,204,11.0,15.0,97,0.13,,,0.67,0.000000,,2013-02-11 09:52:00,
2013-02-11 10:01:00,39.0,38.0,-100.00,SSW,204,11.0,15.0,97,0.13,,,0.67,0.000000,,2013-02-11 10:01:00,
2013-02-11 10:32:00,37.0,35.0,-100.00,SSW,202,13.0,23.0,93,0.10,,,0.77,0.000000,,2013-02-11 10:32:00,
2013-02-11 10:42:00,37.0,35.0,-100.00,SSW,202,13.0,23.0,93,0.10,,,0.77,0.000000,,2013-02-11 10:42:00,
2013-02-11 10:52:00,37.0,35.0,-100.00,SSW,202,13.0,23.0,93,0.10,,,0.77,0.000000,,2013-02-11 10:52:00,
2013-02-11 11:01:00,37.0,35.0,-100.00,SSW,202,13.0,23.0,93,0.10,,,0.77,0.000000,,2013-02-11 11:01:00,
2013-02-11 11:03:00,35.0,33.0,-100.00,SSW,202,13.0,21.0,94,0.05,,,-99.99,0.000000,,2013-02-11 11:03:00,
2013-02-11 11:32:00,35.0,33.0,-100.00,SSW,202,13.0,21.0,94,0.05,,,-99.99,0.000000,,2013-02-11 11:32:00,
2013-02-11 11:42:00,35.0,33.0,-100.00,SSW,202,13.0,21.0,94,0.05,,,-99.99,0.000000,,2013-02-11 11:42:00,
2013-02-11 11:52:00,35.0,33.0,-100.00,SSW,202,13.0,21.0,94,0.05,,,-99.99,0.000000,,2013-02-11 11:52:00,
2013-02-11 12:32:00,33.0,32.0,-100.00,SSW,207,13.0,20.0,95,0.04,,,-99.99,0.000000,,2013-02-11 12:32:00,
2013-02-11 12:42:00,33.0,32.0,-100.00,SSW,207,13.0,20.0,95,0.04,,,-99.99,0.000000,,2013-02-11 12:42:00,
2013-02-11 12:52:00,33.0,32.0,-100.00,SSW,207,13.0,20.0,95,0.04,,,-99.99,0.000000,,2013-02-11 12:52:00,
2013-02-11 13:02:00,33.0,32.0,-100.00,SSW,207,13.0,20.0,95,0.04,,,-99.99,0.000000,,2013-02-11 13:02:00,
2013-02-11 13:33:00,33.0,32.0,-100.00,SSW,204,10.0,19.0,96,0.01,,,-99.99,1.000000,,2013-02-11 13:33:00,
2013-02-11 13:42:00,33.0,32.0,-100.00,SSW,204,10.0,19.0,96,0.01,,,-99.99,1.000000,,2013-02-11 13:42:00,
2013-02-11 13:52:00,33.0,32.0,-100.00,SSW,204,10.0,19.0,96,0.01,,,-99.99,1.000000,,2013-02-11 13:52:00,
2013-02-11 14:02:00,33.0,32.0,-100.00,SSW,204,10.0,19.0,96,0.01,,,-99.99,1.000000,,2013-02-11 14:02:00,
2013-02-11 14:33:00,33.0,32.0,-100.00,SSW,203,8.0,12.0,96,0.02,,,-99.99,41.000000,,2013-02-11 14:33:00,
2013-02-11 14:42:00,33.0,32.0,-100.00,SSW,203,8.0,12.0,96,0.02,,,-99.99,41.000000,,2013-02-11 14:42:00,
2013-02-11 14:53:00,33.0,32.0,-100.00,SSW,203,8.0,12.0,96,0.02,,,-99.99,41.000000,,2013-02-11 14:53:00,
2013-02-11 15:02:00,33.0,32.0,-100.00,SSW,203,8.0,12.0,96,0.02,,,-99.99,41.000000,,2013-02-11 15:02:00,
2013-02-11 15:32:00,33.0,32.0,-100.00,SSW,207,9.0,13.0,95,0.02,,,0.91,71.000000,,2013-02-11 15:32:00,
2013-02-11 15:42:00,33.0,32.0,-100.00,SSW,207,9.0,13.0,95,0.02,,,0.91,71.000000,,2013-02-11 15:42:00,
2013-02-11 15:52:00,33.0,32.0,-100.00,SSW,207,9.0,13.0,95,0.02,,,0.91,71.000000,,2013-02-11 15:52:00,
2013-02-11 16:02:00,33.0,32.0,-100.00,SSW,207,9.0,13.0,95,0.02,,,0.91,71.000000,,2013-02-11 16:02:00,
2013-02-11 16:32:00,35.0,33.0,-100.00,SW,219,7.0,12.0,94,0.00,,,0.91,146.000000,,2013-02-11 16:32:00,
2013-02-11 16:42:00,35.0,33.0,-100.00,SW,219,7.0,12.0,94,0.00,,,0.91,146.000000,,2013-02-11 16:42:00,
2013-02-11 16:52:00,35.0,33.0,-100.00,SW,219,7.0,12.0,94,0.00,,,0.91,146.000000,,2013-02-11 16:52:00,
2013-02-11 17:01:00,35.0,33.0,-100.00,SW,219,7.0,12.0,94,0.00,,,0.91,146.000000,,2013-02-11 17:01:00,
2013-02-11 17:32:00,35.0,33.0,-100.00,WSW,242,7.0,11.0,93,0.02,,,0.93,127.000000,,2013-02-11 17:32:00,
2013-02-11 17:42:00,35.0,33.0,-100.00,WSW,242,7.0,11.0,93,0.02,,,0.93,127.000000,,2013-02-11 17:42:00,
2013-02-11 17:53:00,35.0,33.0,-100.00,WSW,242,7.0,11.0,93,0.02,,,0.93,127.000000,,2013-02-11 17:53:00,
2013-02-11 18:02:00,35.0,33.0,-100.00,WSW,242,7.0,11.0,93,0.02,,,0.93,127.000000,,2013-02-11 18:02:00,
2013-02-11 18:22:00,37.0,35.0,-100.00,NW,304,6.0,13.0,91,0.02,,,0.95,219.000000,,2013-02-11 18:22:00,
2013-02-11 18:32:00,37.0,35.0,-100.00,NW,304,6.0,13.0,91,0.02,,,0.95,219.000000,,2013-02-11 18:32:00,
2013-02-11 18:42:00,37.0,35.0,-100.00,NW,304,6.0,13.0,91,0.02,,,0.95,219.000000,,2013-02-11 18:42:00,
2013-02-11 18:53:00,37.0,35.0,-100.00,NW,304,6.0,13.0,91,0.02,,,0.95,219.000000,,2013-02-11 18:53:00,
2013-02-11 19:02:00,37.0,35.0,-100.00,NW,304,6.0,13.0,91,0.02,,,0.95,219.000000,,2013-02-11 19:02:00,
2013-02-11 19:22:00,34.0,31.0,-100.00,NW,325,9.0,17.0,89,0.01,,,0.96,149.000000,,2013-02-11 19:22:00,
2013-02-11 19:32:00,34.0,31.0,-100.00,NW,325,9.0,17.0,89,0.01,,,0.96,149.000000,,2013-02-11 19:32:00,
2013-02-11 19:42:00,34.0,31.0,-100.00,NW,325,9.0,17.0,89,0.01,,,0.96,149.000000,,2013-02-11 19:42:00,
2013-02-11 19:51:00,34.0,31.0,-100.00,NW,325,9.0,17.0,89,0.01,,,0.96,149.000000,,2013-02-11 19:51:00,
2013-02-11 20:01:00,34.0,31.0,-100.00,NW,325,9.0,17.0,89,0.01,,,0.96,149.000000,,2013-02-11 20:01:00,
2013-02-11 20:32:00,33.0,28.0,-100.00,NW,325,10.0,21.0,81,0.00,,,0.96,76.000000,,2013-02-11 20:32:00,
2013-02-11 20:42:00,33.0,28.0,-100.00,NW,325,10.0,21.0,81,0.00,,,0.96,76.000000,,2013-02-11 20:42:00,
2013-02-11 20:52:00,33.0,28.0,-100.00,NW,325,10.0,21.0,81,0.00,,,0.96,76.000000,,2013-02-11 20:52:00,
2013-02-11 21:02:00,33.0,28.0,-100.00,NW,325,10.0,21.0,81,0.00,,,0.96,76.000000,,2013-02-11 21:02:00,
2013-02-11 21:32:00,32.0,26.0,-100.00,NW,323,10.0,19.0,78,0.00,,,0.96,70.000000,,2013-02-11 21:32:00,
2013-02-11 21:42:00,32.0,26.0,-100.00,NW,323,10.0,19.0,78,0.00,,,0.96,70.000000,,2013-02-11 21:42:00,
2013-02-11 21:52:00,32.0,26.0,-100.00,NW,323,10.0,19.0,78,0.00,,,0.96,70.000000,,2013-02-11 21:52:00,
2013-02-11 22:02:00,32.0,26.0,-100.00,NW,323,10.0,19.0,78,0.00,,,0.96,70.000000,,2013-02-11 22:02:00,
2013-02-11 22:32:00,30.0,23.0,-100.00,NW,326,9.0,21.0,74,0.00,,,0.96,42.000000,,2013-02-11 22:32:00,
2013-02-11 22:42:00,30.0,23.0,-100.00,NW,326,9.0,21.0,74,0.00,,,0.96,42.000000,,2013-02-11 22:42:00,
2013-02-11 22:52:00,30.0,23.0,-100.00,NW,326,9.0,21.0,74,0.00,,,0.96,42.000000,,2013-02-11 22:52:00,
2013-02-11 23:02:00,30.0,23.0,-100.00,NW,326,9.0,21.0,74,0.00,,,0.96,42.000000,,2013-02-11 23:02:00,
2013-02-11 23:22:00,29.0,21.0,-100.00,NW,318,11.0,26.0,73,0.00,,,0.96,33.000000,,2013-02-11 23:22:00,
2013-02-11 23:32:00,29.0,21.0,-100.00,NW,318,11.0,26.0,73,0.00,,,0.96,33.000000,,2013-02-11 23:32:00,
2013-02-11 23:42:00,29.0,21.0,-100.00,NW,318,11.0,26.0,73,0.00,,,0.96,33.000000,,2013-02-11 23:42:00,
2013-02-11 23:52:00,29.0,21.0,-100.00,NW,318,11.0,26.0,73,0.00,,,0.96,33.000000,,2013-02-11 23:52:00,